Date String (YYYY-MM-DD hh:mm:ss) UTC,Instrument flags,Ambient pressure (hPa),Sample flow (lpm),Bypass flow (lpm),Sample temperature (°C),Ambient temperature (°C),ASC tube jacket temperature (°C),LED temperature (°C),Box temperature (°C),Sample RH (%),Span deviation,Mass concentration (μg/m³),Mass concentration (μg/m³),Mass concentration (μg/m³)
DateTimeUTC,F1_M11,P_M11,Q1_M11,Q2_M11,T1_M11,T2_M11,T3_M11,T4_M11,T5_M11,U1_M11,ZSPAN_M11,X0_M11,X2_M11,X1_M11
2022-12-18 08:00:00,,0820.3,5.03,0.00,21.2,19.5,00.0,30.2,22.8,06.9,0000.0,0013.80,0005.08,0004.40
2022-12-18 08:01:00,,0820.3,4.97,0.00,21.3,20.6,00.0,30.1,23.1,06.9,0000.0,0013.81,0005.05,0004.40
2022-12-18 08:02:00,,0820.3,5.02,0.00,21.4,21.7,00.0,30.1,23.3,06.7,0000.0,0014.30,0005.04,0004.40
2022-12-18 08:03:00,,0820.3,4.97,0.00,21.5,21.6,00.0,30.2,23.4,06.6,0000.0,0014.50,0005.05,0004.39
2022-12-18 08:04:00,,0820.2,5.05,0.00,21.5,21.2,00.0,30.2,23.4,06.5,0000.0,0013.61,0005.05,0004.36
2022-12-18 08:05:00,,0820.2,4.96,0.00,21.5,20.8,00.0,30.2,23.3,06.3,0000.0,0013.26,0005.02,0004.34
2022-12-18 08:06:00,,0820.2,5.03,0.00,21.5,20.4,00.0,30.3,23.2,06.1,0000.0,0012.23,0004.98,0004.27
2022-12-18 08:07:00,,0820.0,5.01,0.00,21.4,20.0,00.0,30.3,23.0,06.2,0000.0,0012.46,0004.92,0004.22
2022-12-18 08:08:00,,0820.0,4.96,0.00,21.3,19.6,00.0,30.3,22.9,06.0,0000.0,0012.00,0004.84,0004.15
2022-12-18 08:09:00,,0820.0,5.02,0.00,21.3,19.3,00.0,30.2,22.8,06.0,0000.0,0011.56,0004.77,0004.06
2022-12-18 08:10:00,,0820.2,5.02,0.00,21.3,19.7,00.0,30.2,22.8,06.1,0000.0,0011.62,0004.74,0003.97
2022-12-18 08:11:00,,0820.2,4.96,0.00,21.4,21.0,00.0,30.2,23.2,06.1,0000.0,0011.60,0004.65,0003.89
2022-12-18 08:12:00,,0820.2,5.04,0.00,21.5,21.7,00.0,30.2,23.4,06.3,0000.0,0011.34,0004.62,0003.84
2022-12-18 08:13:00,,0820.2,4.96,0.00,21.5,21.3,00.0,30.2,23.4,06.2,0000.0,0010.90,0004.59,0003.80
2022-12-18 08:14:00,,0820.0,5.03,0.00,21.5,21.0,00.0,30.3,23.3,06.1,0000.0,0010.05,0004.50,0003.75
2022-12-18 08:15:00,,0820.1,4.96,0.00,21.5,20.7,00.0,30.3,23.3,06.1,0000.0,0010.76,0004.48,0003.71
2022-12-18 08:16:00,,0820.2,5.02,0.00,21.5,20.5,00.0,30.3,23.2,06.0,0000.0,0011.05,0004.47,0003.67
2022-12-18 08:17:00,,0820.2,5.02,0.00,21.5,20.3,00.0,30.3,23.2,05.9,0000.0,0011.73,0004.43,0003.65
2022-12-18 08:18:00,,0820.2,4.96,0.00,21.5,20.1,00.0,30.3,23.2,05.8,0000.0,0011.42,0004.41,0003.62
2022-12-18 08:19:00,,0820.2,5.01,0.00,21.5,19.9,00.0,30.3,23.1,05.8,0000.0,0010.76,0004.43,0003.60
2022-12-18 08:20:00,,0820.2,5.04,0.00,21.4,19.7,00.0,30.3,23.0,05.7,0000.0,0010.69,0004.44,0003.59
2022-12-18 08:21:00,,0820.2,4.95,0.00,21.4,20.4,00.0,30.2,23.1,05.7,0000.0,0010.60,0004.40,0003.56
2022-12-18 08:22:00,,0820.2,5.04,0.00,21.5,21.5,00.0,30.2,23.4,05.7,0000.0,0010.77,0004.34,0003.54
2022-12-18 08:23:00,,0820.2,4.98,0.00,21.6,21.8,00.0,30.3,23.6,05.7,0000.0,0010.81,0004.29,0003.49
2022-12-18 08:24:00,,0820.2,5.04,0.00,21.7,21.4,00.0,30.3,23.5,05.8,0000.0,0011.26,0004.27,0003.44
2022-12-18 08:25:00,,0820.2,4.95,0.00,21.6,21.0,00.0,30.4,23.4,05.7,0000.0,0011.67,0004.26,0003.41
2022-12-18 08:26:00,,0820.1,5.03,0.00,21.6,20.7,00.0,30.4,23.4,05.7,0000.0,0011.07,0004.17,0003.37
2022-12-18 08:27:00,,0820.0,5.02,0.00,21.6,20.5,00.0,30.4,23.3,05.6,0000.0,0010.75,0004.07,0003.32
2022-12-18 08:28:00,,0820.0,4.95,0.00,21.6,20.3,00.0,30.4,23.3,05.6,0000.0,0010.95,0004.04,0003.30
2022-12-18 08:29:00,,0820.0,5.04,0.00,21.6,20.1,00.0,30.4,23.2,05.6,0000.0,0011.87,0004.00,0003.29
2022-12-18 08:30:00,,0820.1,5.03,0.00,21.5,19.8,00.0,30.4,23.1,05.6,0000.0,0012.17,0003.96,0003.27
2022-12-18 08:31:00,,0820.2,4.98,0.00,21.4,19.8,00.0,30.4,23.0,05.6,0000.0,0012.14,0003.93,0003.26
2022-12-18 08:32:00,,0820.2,4.99,0.00,21.5,20.8,00.0,30.3,23.3,05.6,0000.0,0012.11,0003.92,0003.25
2022-12-18 08:33:00,,0820.2,5.03,0.00,21.6,21.8,00.0,30.3,23.6,05.6,0000.0,0011.98,0003.92,0003.24
2022-12-18 08:34:00,,0820.0,4.98,0.00,21.7,21.7,00.0,30.4,23.6,05.6,0000.0,0012.55,0003.92,0003.24
2022-12-18 08:35:00,,0820.0,4.99,0.00,21.7,21.3,00.0,30.4,23.5,05.6,0000.0,0012.29,0003.90,0003.22
2022-12-18 08:36:00,,0820.0,4.99,0.00,21.7,21.0,00.0,30.5,23.5,05.6,0000.0,0012.41,0003.89,0003.21
2022-12-18 08:37:00,,0819.9,5.04,0.00,21.7,20.7,00.0,30.5,23.4,05.7,0000.0,0012.58,0003.97,0003.22
2022-12-18 08:38:00,,0819.9,4.95,0.00,21.7,20.5,00.0,30.5,23.3,05.9,0000.0,0012.91,0004.06,0003.26
2022-12-18 08:39:00,,0820.0,5.02,0.00,21.6,20.3,00.0,30.5,23.3,05.8,0000.0,0012.56,0004.09,0003.28
2022-12-18 08:40:00,,0820.0,5.02,0.00,21.6,20.1,00.0,30.5,23.3,05.8,0000.0,0012.55,0004.12,0003.29
2022-12-18 08:41:00,,0820.1,4.95,0.00,21.6,20.0,00.0,30.4,23.2,05.9,0000.0,0012.32,0004.16,0003.32
2022-12-18 08:42:00,,0820.0,5.02,0.00,21.5,20.3,00.0,30.4,23.2,05.8,0000.0,0012.39,0004.19,0003.34
2022-12-18 08:43:00,,0820.0,5.02,0.00,21.6,21.3,00.0,30.4,23.5,05.7,0000.0,0012.64,0004.19,0003.35
2022-12-18 08:44:00,,0820.0,4.97,0.00,21.7,21.9,00.0,30.4,23.7,05.7,0000.0,0012.50,0004.19,0003.36
2022-12-18 08:45:00,,0820.0,5.04,0.00,21.8,21.6,00.0,30.5,23.7,05.7,0000.0,0011.66,0004.18,0003.35
2022-12-18 08:46:00,,0820.0,4.96,0.00,21.8,21.2,00.0,30.5,23.6,05.6,0000.0,0011.25,0004.12,0003.34
2022-12-18 08:47:00,,0820.1,5.03,0.00,21.8,20.8,00.0,30.5,23.5,05.6,0000.0,0011.31,0004.12,0003.34
2022-12-18 08:48:00,,0820.2,5.01,0.00,21.7,20.5,00.0,30.5,23.4,05.6,0000.0,0010.92,0004.05,0003.32
2022-12-18 08:49:00,,0820.2,4.95,0.00,21.7,20.3,00.0,30.5,23.4,05.5,0000.0,0010.55,0003.97,0003.26
2022-12-18 08:50:00,,0820.2,5.03,0.00,21.7,20.1,00.0,30.5,23.3,05.5,0000.0,0010.17,0003.94,0003.24
2022-12-18 08:51:00,,0820.2,5.02,0.00,21.6,19.9,00.0,30.5,23.2,05.6,0000.0,0009.10,0003.91,0003.22
2022-12-18 08:52:00,,0820.2,4.95,0.00,21.6,19.8,00.0,30.5,23.2,05.6,0000.0,0008.91,0003.85,0003.18
2022-12-18 08:53:00,,0820.2,5.02,0.00,21.6,20.5,00.0,30.4,23.3,05.6,0000.0,0008.78,0003.84,0003.15
2022-12-18 08:54:00,,0820.2,5.01,0.00,21.7,21.6,00.0,30.4,23.6,05.6,0000.0,0008.49,0003.82,0003.14
2022-12-18 08:55:00,,0820.1,4.97,0.00,21.8,21.9,00.0,30.5,23.7,05.6,0000.0,0008.88,0003.82,0003.13
2022-12-18 08:56:00,,0820.0,5.01,0.00,21.8,21.5,00.0,30.5,23.7,05.6,0000.0,0008.93,0003.78,0003.12
2022-12-18 08:57:00,,0820.0,4.98,0.00,21.8,21.1,00.0,30.6,23.6,05.6,0000.0,0009.19,0003.82,0003.12
2022-12-18 08:58:00,,0820.1,5.04,0.00,21.8,20.8,00.0,30.6,23.6,05.6,0000.0,0008.85,0003.79,0003.11
2022-12-18 08:59:00,,0820.2,4.94,0.00,21.8,20.6,00.0,30.6,23.5,05.6,0000.0,0008.90,0003.82,0003.12
